Regional Weather Roundup
Issued by NWS

Home | Current Version | Previous Version | Text Only | Print | Product List | Glossary On
Versions: 1 2 3 4 5 6 7 8 9 10 11 12 13 14 15 16 17 18 19 20 21 22 23 24 25 26 27 28 29 30 31 32 33 34 35 36 37 38 39 40 41 42 43 44 45 46 47 48
000
ASUS46 KPQR 282110
RWROR

OREGON REGIONAL WEATHER ROUNDUP
NATIONAL WEATHER SERVICE PORTLAND OR
100 PM PST SUN DEC 28 2014

NOTE: "FAIR" INDICATES FEW OR NO CLOUDS BELOW 12,000 FEET WITH
NO SIGNIFICANT WEATHER AND/OR OBSTRUCTIONS TO VISIBILITY.

ORZ001>013-282200-
NORTHWEST OREGON


CITY           SKY/WX    TMP DP  RH WIND       PRES   REMARKS
ASTORIA        PTSUNNY   47  37  68 NW13      30.21F
NEWPORT        PTSUNNY   48  41  76 NW9       30.33F
PORTLAND       PTSUNNY   46  41  82 SW5       30.24F
VANCOUVER WA   PTSUNNY   45  39  79 CALM      30.24F
SCAPPOOSE      LGT RAIN  46  39  76 S7        30.22F
HILLSBORO      CLOUDY    46  39  76 SW7       30.24F
AURORA         CLOUDY    46  38  73 SW7       30.27F
MCMINNVILLE    CLOUDY    47  40  76 SW10      30.26F
SALEM          PTSUNNY   47  39  74 SW5       30.26F
CORVALLIS      CLOUDY    48  39  71 SW9       30.30F
EUGENE         CLOUDY    47  41  80 W8        30.31F
$$

ORZ021-028-282200-
SOUTHWEST OREGON


CITY           SKY/WX    TMP DP  RH WIND       PRES   REMARKS
NORTH BEND     PTSUNNY   54  43  66 NW9G17    30.36S
BROOKINGS      PTSUNNY   53  42  66 NW7       30.33F
ROSEBURG       MOSUNNY   49  39  68 CALM      30.32F
SEXTON SUMMIT  SNOW      32  32 100 VRB3      30.23F VSB<1/4
MEDFORD        MOSUNNY   45  39  79 CALM      30.30F
$$

ORZ014>016-041-282200-
COLUMBIA GORGE


CITY           SKY/WX    TMP DP  RH WIND       PRES   REMARKS
TROUTDALE      CLOUDY    46  40  79 SW6       30.24F
THE DALLES     MOSUNNY   46  34  62 NW10      30.18F
$$

ORZ029>031-041-044-049-050-061>064-502-503-505>511-282200-
EASTERN OREGON


CITY           SKY/WX    TMP DP  RH WIND       PRES   REMARKS
REDMOND        CLOUDY    37  26  64 W15       30.14F WCI  28
BEND           MOSUNNY   36  27  69 N12       30.15F WCI  27
PRINEVILLE     PTSUNNY   37  27  65 W16       30.13F WCI  28
KLAMATH FALLS  SUNNY    N/A N/A N/A W16       30.15F
LAKEVIEW       MOSUNNY   39  23  52 W6        30.12F WCI  35
HERMISTON      CLOUDY    42  35  76 NE6       30.14F
PENDLETON      CLOUDY    38  34  85 N13       30.11S WCI  30
JOHN DAY       CLOUDY    33  30  87 W10       30.09F WCI  25
MEACHAM        SNOW      30  28  92 VRB3      30.03F VSB 1/4
LA GRANDE      PTSUNNY   36  25  64 NW10      30.06S WCI  28
BAKER CITY     NOT AVBL
BURNS          PTSUNNY   34  26  72 CALM      30.08F
ROME             N/A     41  18  39 W16       30.05F
ONTARIO        FOG       28  27  96 SE3       30.13F VSB 1/4
$$


USA.gov is the U.S. government's official web portal to all federal, state and local government web resources and services.